SBI5723 UNNT-ZBAD

Flight info

Callsign SBI5723
Flight time N/A
Altitude 37100
Route OGATI A308 LEKOS P982 DARNO/K0839S1130 Y746 NIXAL G343 TMR W65 TUSLA W64 ELAPU
Aircraft B738/M-SDE2E3FGHIRWXY/LB1

Departure

Time N/A
Airport Novosibirsk Tolmachevo Airport (UNNT)

Arrival

Time 2026-05-06 09:30
Airport Beijing Daxing International Airport (ZBAD)
Time Latitude Longitude Altitude Speed Heading
2026-05-06 08:36 42.19356 112.58182 37192 ft 501 kts 139°
2026-05-06 08:36 42.17146 112.61821 37184 ft 501 kts 139°
2026-05-06 08:37 42.12726 112.69084 37186 ft 501 kts 139°
2026-05-06 08:37 42.08305 112.76331 37185 ft 501 kts 139°
2026-05-06 08:38 42.03876 112.83574 37171 ft 501 kts 139°
2026-05-06 08:38 41.99448 112.90797 37171 ft 501 kts 139°
2026-05-06 08:39 41.95005 112.98030 37165 ft 501 kts 139°
2026-05-06 08:39 41.90563 113.05247 37160 ft 501 kts 139°
2026-05-06 08:40 41.85855 113.11939 37143 ft 474 kts 159°
2026-05-06 08:40 41.83045 113.13871 37166 ft 450 kts 172°
2026-05-06 08:40 41.80053 113.14944 37150 ft 430 kts 185°
2026-05-06 08:40 41.77168 113.15132 37156 ft 414 kts 193°
2026-05-06 08:41 41.74296 113.14981 37155 ft 413 kts 194°
2026-05-06 08:41 41.68533 113.14599 37147 ft 415 kts 194°
2026-05-06 08:42 41.62733 113.14250 37147 ft 418 kts 194°
2026-05-06 08:42 41.56906 113.13943 37143 ft 420 kts 193°
2026-05-06 08:43 41.51064 113.13652 37142 ft 420 kts 193°
2026-05-06 08:43 41.45214 113.13364 37143 ft 420 kts 193°
2026-05-06 08:44 41.39370 113.13076 37139 ft 420 kts 193°
2026-05-06 08:44 41.33537 113.12788 37131 ft 419 kts 193°
2026-05-06 08:45 41.27724 113.12501 37136 ft 417 kts 193°
2026-05-06 08:45 41.21960 113.12216 37138 ft 417 kts 193°
2026-05-06 08:46 41.16161 113.11929 37120 ft 417 kts 193°
2026-05-06 08:46 41.10374 113.11645 37129 ft 416 kts 193°
2026-05-06 08:47 41.04587 113.11360 37118 ft 416 kts 193°
2026-05-06 08:47 40.98801 113.11076 37120 ft 416 kts 193°
2026-05-06 08:48 40.93022 113.10793 37123 ft 416 kts 193°
2026-05-06 08:48 40.87233 113.10512 37123 ft 416 kts 193°
2026-05-06 08:49 40.81444 113.10236 37117 ft 417 kts 193°
2026-05-06 08:49 40.75639 113.09959 37108 ft 418 kts 193°
2026-05-06 08:50 40.69823 113.09683 37096 ft 418 kts 193°
2026-05-06 08:50 40.64006 113.09406 37100 ft 418 kts 193°
2026-05-06 08:51 40.58221 113.09132 37097 ft 419 kts 193°
2026-05-06 08:51 40.52381 113.08855 37098 ft 420 kts 193°
2026-05-06 08:52 40.46537 113.08578 37084 ft 421 kts 193°
2026-05-06 08:52 40.43591 113.08577 37069 ft 433 kts 184°
2026-05-06 08:52 40.40601 113.09607 37094 ft 457 kts 167°
2026-05-06 08:52 40.37798 113.11794 37078 ft 483 kts 150°
2026-05-06 08:53 40.35511 113.15075 37063 ft 505 kts 130°
2026-05-06 08:53 40.34017 113.19314 37074 ft 522 kts 110°
2026-05-06 08:53 40.33431 113.24041 37102 ft 528 kts 100°
2026-05-06 08:54 40.32889 113.33672 37068 ft 531 kts 97°
2026-05-06 08:54 40.32384 113.43325 37058 ft 530 kts 98°
2026-05-06 08:55 40.31744 113.52979 36714 ft 531 kts 99°
2026-05-06 08:55 40.31399 113.57769 36307 ft 525 kts 100°
2026-05-06 08:55 40.31049 113.62531 35734 ft 525 kts 100°
2026-05-06 08:55 40.30696 113.67306 35030 ft 527 kts 100°
2026-05-06 08:56 40.30339 113.72107 34335 ft 531 kts 100°
2026-05-06 08:56 40.29981 113.76932 33653 ft 533 kts 100°
2026-05-06 08:56 40.29623 113.81758 32946 ft 534 kts 99°
2026-05-06 08:56 40.29269 113.86538 32390 ft 531 kts 99°
2026-05-06 08:57 40.28914 113.91327 31977 ft 525 kts 99°
2026-05-06 08:57 40.28557 113.96122 31584 ft 519 kts 98°
2026-05-06 08:57 40.28208 114.00752 31158 ft 515 kts 98°
2026-05-06 08:57 40.27855 114.05401 30720 ft 511 kts 98°
2026-05-06 08:58 40.27510 114.10010 30284 ft 507 kts 97°
2026-05-06 08:58 40.27253 114.14601 29827 ft 504 kts 95°
2026-05-06 08:58 40.27066 114.19161 29351 ft 499 kts 94°
2026-05-06 08:58 40.26907 114.23678 28895 ft 494 kts 94°
2026-05-06 08:59 40.26803 114.26645 28598 ft 491 kts 94°
2026-05-06 08:59 40.26583 114.32590 27964 ft 485 kts 95°
2026-05-06 08:59 40.26407 114.36988 27514 ft 481 kts 95°
2026-05-06 08:59 40.26222 114.41342 27071 ft 477 kts 95°
2026-05-06 09:00 40.26034 114.45657 26609 ft 472 kts 96°
2026-05-06 09:00 40.25844 114.49927 26141 ft 468 kts 96°
2026-05-06 09:00 40.25652 114.54164 25749 ft 464 kts 96°
2026-05-06 09:00 40.25460 114.58371 25318 ft 460 kts 96°
2026-05-06 09:01 40.25269 114.62527 24876 ft 457 kts 96°
2026-05-06 09:01 40.25078 114.66675 24468 ft 454 kts 96°
2026-05-06 09:01 40.24890 114.70729 24078 ft 450 kts 96°
2026-05-06 09:01 40.24700 114.74812 23694 ft 447 kts 96°
2026-05-06 09:02 40.24511 114.78836 23454 ft 440 kts 96°
2026-05-06 09:02 40.24323 114.82811 23185 ft 434 kts 96°
2026-05-06 09:02 40.24134 114.86755 22865 ft 434 kts 96°
2026-05-06 09:02 40.23942 114.90721 22614 ft 441 kts 96°
2026-05-06 09:03 40.23813 114.93376 22451 ft 442 kts 96°
2026-05-06 09:03 40.23618 114.97379 22182 ft 438 kts 96°
2026-05-06 09:03 40.23425 115.01338 21904 ft 434 kts 96°
2026-05-06 09:03 40.23232 115.05258 21643 ft 430 kts 96°
2026-05-06 09:04 40.23039 115.09146 21400 ft 426 kts 96°
2026-05-06 09:04 40.22846 115.13010 21159 ft 424 kts 96°
2026-05-06 09:04 40.22652 115.16859 21153 ft 428 kts 96°
2026-05-06 09:04 40.22451 115.20799 21168 ft 436 kts 96°
2026-05-06 09:05 40.22248 115.24778 21172 ft 439 kts 96°
2026-05-06 09:05 40.22044 115.28761 21157 ft 439 kts 96°
2026-05-06 09:05 40.21839 115.32737 21148 ft 437 kts 96°
2026-05-06 09:05 40.21634 115.36699 21141 ft 436 kts 96°
2026-05-06 09:06 40.21427 115.40650 21142 ft 435 kts 96°
2026-05-06 09:06 40.20855 115.44506 21103 ft 429 kts 116°
2026-05-06 09:06 40.19416 115.47846 21126 ft 416 kts 135°
2026-05-06 09:06 40.17368 115.50419 21132 ft 403 kts 151°
2026-05-06 09:07 40.15018 115.52192 21117 ft 389 kts 166°
2026-05-06 09:07 40.12467 115.53217 21125 ft 381 kts 173°
2026-05-06 09:07 40.09897 115.54055 21118 ft 380 kts 174°
2026-05-06 09:07 40.07319 115.54857 21114 ft 381 kts 175°
2026-05-06 09:08 40.04735 115.55659 21118 ft 383 kts 174°
2026-05-06 09:08 40.02127 115.56482 21118 ft 385 kts 174°
2026-05-06 09:08 39.99519 115.57318 21112 ft 386 kts 174°
2026-05-06 09:08 39.96910 115.58164 21099 ft 386 kts 174°
2026-05-06 09:09 39.94304 115.59013 21084 ft 384 kts 174°
2026-05-06 09:09 39.91714 115.59862 21080 ft 383 kts 174°
2026-05-06 09:09 39.89129 115.60710 21094 ft 382 kts 174°
2026-05-06 09:09 39.86554 115.61554 21091 ft 382 kts 174°
2026-05-06 09:10 39.83972 115.62398 21081 ft 381 kts 174°
2026-05-06 09:10 39.81399 115.63238 21038 ft 382 kts 174°
2026-05-06 09:10 39.78823 115.64078 20983 ft 382 kts 174°
2026-05-06 09:10 39.76257 115.64917 20750 ft 377 kts 174°
2026-05-06 09:11 39.73740 115.65741 20435 ft 371 kts 174°
2026-05-06 09:11 39.71248 115.66554 20052 ft 367 kts 174°
2026-05-06 09:11 39.68795 115.67351 19647 ft 365 kts 174°
2026-05-06 09:11 39.66347 115.68145 19216 ft 361 kts 174°
2026-05-06 09:12 39.63925 115.68932 18866 ft 356 kts 174°
2026-05-06 09:12 39.61523 115.69712 18459 ft 355 kts 175°
2026-05-06 09:12 39.59136 115.70486 18043 ft 352 kts 174°
2026-05-06 09:12 39.56769 115.71253 17615 ft 349 kts 174°
2026-05-06 09:13 39.54424 115.72012 17191 ft 346 kts 174°
2026-05-06 09:13 39.52426 115.72660 16841 ft 343 kts 174°
2026-05-06 09:13 39.50373 115.73324 16489 ft 341 kts 174°
2026-05-06 09:13 39.48080 115.74069 16101 ft 339 kts 173°
2026-05-06 09:14 39.45850 115.75151 15700 ft 346 kts 161°
2026-05-06 09:14 39.43806 115.76760 15332 ft 352 kts 149°
2026-05-06 09:14 39.41921 115.78803 14959 ft 353 kts 146°
2026-05-06 09:14 39.40080 115.80897 14579 ft 352 kts 145°
2026-05-06 09:15 39.38253 115.82993 14198 ft 351 kts 145°
2026-05-06 09:15 39.36433 115.85075 13825 ft 349 kts 144°
2026-05-06 09:15 39.34611 115.87148 13416 ft 348 kts 144°
2026-05-06 09:15 39.32791 115.89207 13002 ft 347 kts 144°
2026-05-06 09:16 39.30978 115.91251 12602 ft 345 kts 144°
2026-05-06 09:16 39.29168 115.93286 12216 ft 344 kts 143°
2026-05-06 09:16 39.27364 115.95311 11827 ft 343 kts 143°
2026-05-06 09:16 39.25590 115.97301 11456 ft 341 kts 143°
2026-05-06 09:17 39.23799 115.99308 11074 ft 341 kts 142°
2026-05-06 09:17 39.22008 116.01314 10690 ft 341 kts 142°
2026-05-06 09:17 39.20221 116.03314 10460 ft 335 kts 142°
2026-05-06 09:17 39.18485 116.05257 10321 ft 327 kts 142°
2026-05-06 09:18 39.16789 116.07155 10175 ft 319 kts 141°
2026-05-06 09:18 39.15117 116.09022 10051 ft 317 kts 141°
2026-05-06 09:18 39.13458 116.10873 9850 ft 314 kts 141°
2026-05-06 09:18 39.11822 116.12697 9724 ft 308 kts 141°
2026-05-06 09:19 39.10208 116.14495 9576 ft 306 kts 141°
2026-05-06 09:19 39.08845 116.16583 9413 ft 307 kts 115°
2026-05-06 09:19 39.08274 116.19214 9172 ft 306 kts 89°
2026-05-06 09:19 39.08418 116.21929 8909 ft 303 kts 79°
2026-05-06 09:20 39.08687 116.24612 8609 ft 301 kts 78°
2026-05-06 09:20 39.08968 116.27274 8324 ft 299 kts 78°
2026-05-06 09:20 39.09506 116.32554 7768 ft 295 kts 78°
2026-05-06 09:21 39.09759 116.35129 7499 ft 293 kts 79°
2026-05-06 09:21 39.10009 116.37721 7237 ft 290 kts 79°
2026-05-06 09:21 39.10254 116.40290 6974 ft 288 kts 79°
2026-05-06 09:21 39.10495 116.42839 6709 ft 285 kts 78°
2026-05-06 09:22 39.10782 116.45338 6437 ft 276 kts 69°
2026-05-06 09:22 39.11724 116.47330 6197 ft 253 kts 36°
2026-05-06 09:22 39.13239 116.48240 5947 ft 235 kts
2026-05-06 09:22 39.14825 116.48262 5739 ft 223 kts 354°
2026-05-06 09:23 39.16353 116.48030 5470 ft 219 kts 352°
2026-05-06 09:23 39.17862 116.47769 5257 ft 216 kts 352°
2026-05-06 09:23 39.19309 116.47527 5111 ft 212 kts 353°
2026-05-06 09:23 39.20774 116.47295 4928 ft 209 kts 353°
2026-05-06 09:24 39.22186 116.47076 4844 ft 201 kts 353°
2026-05-06 09:24 39.23552 116.46860 4623 ft 195 kts 353°
2026-05-06 09:24 39.24890 116.46647 4372 ft 192 kts 354°
2026-05-06 09:24 39.26211 116.46439 4122 ft 190 kts 353°
2026-05-06 09:25 39.27525 116.46229 3865 ft 189 kts 354°
2026-05-06 09:25 39.28823 116.46024 3630 ft 191 kts 354°
2026-05-06 09:25 39.30152 116.45816 3383 ft 191 kts 354°
2026-05-06 09:25 39.31462 116.45605 3132 ft 189 kts 354°
2026-05-06 09:26 39.32752 116.45404 2899 ft 184 kts 355°
2026-05-06 09:26 39.34005 116.45207 2656 ft 176 kts 355°
2026-05-06 09:26 39.35204 116.45017 2418 ft 173 kts 356°
2026-05-06 09:26 39.36391 116.44832 2194 ft 172 kts 356°
2026-05-06 09:27 39.37556 116.44645 1981 ft 165 kts 356°
2026-05-06 09:27 39.38678 116.44467 1752 ft 159 kts 357°
2026-05-06 09:27 39.39769 116.44295 1594 ft 156 kts 356°
2026-05-06 09:27 39.40842 116.44126 1361 ft 157 kts 356°
2026-05-06 09:28 39.41900 116.43957 1129 ft 151 kts 358°
2026-05-06 09:28 39.42950 116.43772 908 ft 153 kts 356°
2026-05-06 09:28 39.43976 116.43620 696 ft 146 kts 357°
2026-05-06 09:28 39.44989 116.43473 485 ft 148 kts 356°
2026-05-06 09:29 39.46018 116.43302 321 ft 152 kts 355°
2026-05-06 09:29 39.47072 116.43140 143 ft 151 kts 356°
2026-05-06 09:29 39.48058 116.42985 88 ft 131 kts 354°
2026-05-06 09:29 39.48840 116.42862 93 ft 96 kts 353°
2026-05-06 09:30 39.49220 116.42803 95 ft 60 kts 353°
2026-05-06 09:30 39.49596 116.42603 94 ft 8 kts 327°
2026-05-06 09:31 39.49641 116.42563 95 ft 8 kts 325°
2026-05-06 09:31 39.49686 116.42525 96 ft 8 kts 331°
2026-05-06 09:31 39.49734 116.42502 94 ft 7 kts 347°
2026-05-06 09:31 39.49804 116.42489 94 ft 14 kts 354°
2026-05-06 09:32 39.49906 116.42473 94 ft 15 kts 353°
2026-05-06 09:32 39.50007 116.42457 95 ft 14 kts 354°
2026-05-06 09:32 39.50058 116.42432 94 ft 7 kts 282°
2026-05-06 09:32 39.50056 116.42410 96 ft 0 kts 264°
2026-05-06 09:33 39.50056 116.42409 96 ft 0 kts 263°
2026-05-06 09:33 39.50055 116.42405 96 ft 0 kts 261°
2026-05-06 09:34 39.50054 116.42400 94 ft 2 kts 259°
2026-05-06 09:35 39.50051 116.42376 96 ft 3 kts 263°
2026-05-06 09:35 39.50065 116.42338 94 ft 3 kts 322°
2026-05-06 09:35 39.50066 116.42338 94 ft 0 kts 322°
2026-05-06 09:36 39.50076 116.42335 94 ft 4 kts 344°
2026-05-06 09:36 39.50089 116.42332 94 ft 0 kts 351°
2026-05-06 09:37 39.50094 116.42330 94 ft 2 kts 344°
2026-05-06 09:38 39.50119 116.42301 94 ft 8 kts 297°
2026-05-06 09:39 39.50085 116.41822 97 ft 14 kts 263°
2026-05-06 09:39 39.50422 116.41038 94 ft 0 kts 44°
2026-05-06 09:39 39.50421 116.41038 94 ft 0 kts 45°
2026-05-06 09:40 39.50419 116.41035 94 ft 0 kts 46°